Date,TemperatureHighF,TemperatureAvgF,TemperatureLowF,DewpointHighF,DewpointAvgF,DewpointLowF,HumidityHigh,HumidityAvg,HumidityLow,PressureMaxIn,PressureMinIn,WindSpeedMaxMPH,WindSpeedAvgMPH,GustSpeedMaxMPH,PrecipitationSumIn
2014-1-1,55.8,50.2,46.7,48.7,45.1,42.4,91,83,76,30.13,30.03,3,0,16,0.00
2014-1-2,55.2,49.1,41.9,48.9,45.3,39.7,95,87,74,30.13,30.08,2,0,8,0.12
2014-1-3,57.8,53.2,50.3,52.9,50.4,48.1,94,90,81,30.21,30.10,3,0,13,0.10
2014-1-4,56.5,53.4,50.5,53.9,51.6,48.3,95,94,87,30.21,30.02,6,1,27,0.37
2014-1-5,56.7,51.8,43.0,53.1,48.3,40.7,92,88,80,30.03,29.78,9,2,30,0.44
2014-1-6,57.4,49.0,42.3,48.4,44.5,40.1,93,85,68,30.20,29.88,3,0,18,0.00
2014-1-7,55.1,47.2,41.6,49.8,43.7,39.4,94,88,74,30.32,30.20,4,0,12,0.01
2014-1-8,55.2,49.2,41.6,49.5,44.7,39.7,93,85,76,30.34,30.29,0,0,4,0.00
2014-1-9,55.1,48.9,41.9,51.9,46.4,40.0,96,91,82,30.29,30.19,1,0,6,0.00
2014-1-10,55.7,51.0,48.1,50.5,47.2,44.1,93,87,75,30.19,30.13,1,0,6,0.00
2014-1-11,55.5,47.6,42.6,48.5,43.8,40.1,93,87,75,30.21,30.16,4,0,18,0.02
2014-1-12,56.7,49.1,41.3,50.3,44.7,39.7,95,85,73,30.19,30.10,4,1,33,0.01
2014-1-13,59.9,52.4,44.9,49.3,45.6,41.9,93,78,61,30.12,30.00,5,1,18,0.00
2014-1-14,54.6,50.3,45.1,52.0,48.4,43.2,95,93,89,30.00,29.80,4,0,20,2.29
2014-1-15,56.2,47.9,41.4,52.1,44.5,39.3,96,89,68,29.97,29.79,1,0,9,0.02
2014-1-16,55.2,46.0,38.6,49.8,43.0,37.0,96,89,78,30.09,29.95,2,0,8,0.01
2014-1-17,56.0,50.9,44.9,49.8,46.8,43.1,95,86,75,30.07,29.98,4,0,21,0.00
2014-1-18,62.2,55.9,48.4,50.7,47.7,44.3,89,75,55,30.00,29.77,5,1,20,0.00
2014-1-19,62.5,59.7,55.4,53.1,51.1,46.1,85,74,57,29.79,29.60,8,3,33,0.04
2014-1-20,55.6,52.0,49.0,52.3,49.0,46.2,95,89,81,29.65,29.46,9,1,36,1.76
2014-1-21,53.4,49.4,48.0,52.3,48.0,46.4,100,95,94,29.79,29.49,7,0,22,1.71
2014-1-22,51.2,46.5,38.9,49.8,44.9,37.0,96,94,92,30.02,29.79,3,0,12,0.04
2014-1-23,49.9,45.7,38.9,48.2,44.0,37.0,96,94,90,30.05,29.97,3,0,11,0.15
2014-1-24,52.9,48.2,44.0,50.3,45.9,41.8,95,92,82,29.96,29.45,6,1,26,1.32
2014-1-25,51.1,44.0,37.1,42.3,37.0,31.6,95,78,60,29.80,29.45,5,1,22,0.01
2014-1-26,45.2,39.1,33.3,36.3,32.5,28.4,88,77,67,29.80,29.68,3,0,13,0.01
2014-1-27,50.0,40.3,31.3,43.0,35.5,27.5,92,83,65,29.76,29.41,5,0,28,0.51
2014-1-28,52.1,44.6,34.5,46.6,40.3,31.9,94,85,68,29.53,29.34,3,0,18,0.18
2014-1-29,51.3,42.9,32.3,46.8,39.3,30.4,95,87,71,29.84,29.53,6,1,24,0.20
2014-1-30,61.2,54.2,47.4,49.0,44.5,41.2,85,70,56,29.86,29.80,7,2,26,0.05
2014-1-31,62.3,58.2,54.5,53.3,48.5,45.4,88,71,55,29.85,29.77,10,2,40,0.30
2014-2-1,60.4,55.8,53.2,55.2,52.3,50.3,93,88,77,29.86,29.73,7,0,25,0.51
2014-2-2,55.7,53.3,52.2,51.5,50.6,49.4,94,91,84,29.75,29.66,3,1,14,0.13
2014-2-3,54.6,51.3,48.1,52.2,49.1,46.5,94,92,89,29.92,29.75,2,0,13,0.63
2014-2-4,57.5,49.6,46.4,50.6,46.8,44.5,95,90,71,30.05,29.92,2,0,14,0.06
2014-2-5,55.1,48.6,43.8,51.9,46.3,42.3,96,92,82,30.04,29.90,4,0,17,0.38
2014-2-6,58.1,49.6,41.8,49.5,44.7,39.3,95,84,61,30.04,29.77,7,1,34,0.45
2014-2-7,59.1,48.9,40.7,50.0,44.7,38.8,95,86,68,30.09,29.97,3,0,13,0.01
2014-2-8,57.7,52.8,48.9,52.8,47.7,44.2,94,83,70,29.97,29.88,6,1,21,0.33
2014-2-9,55.8,51.4,45.3,51.9,47.3,42.0,95,86,73,29.95,29.70,11,2,35,0.89
2014-2-10,58.4,51.1,44.9,51.7,45.8,42.2,92,82,61,29.94,29.71,5,1,23,0.11
2014-2-11,62.6,56.6,51.8,55.8,52.1,49.3,94,85,67,29.78,29.52,5,0,17,0.26
2014-2-12,57.3,51.3,44.2,50.7,47.3,41.5,95,87,66,29.90,29.56,4,0,15,0.31
2014-2-13,57.9,47.6,38.8,48.6,42.7,36.9,95,84,62,30.00,29.90,3,0,18,0.01
2014-2-14,62.5,54.1,47.6,55.1,48.9,42.8,94,83,63,30.00,29.80,4,0,17,0.04
2014-2-15,62.9,51.2,42.2,52.6,44.8,38.1,91,79,65,30.12,30.00,2,0,10,0.00
2014-2-16,67.7,53.4,43.3,53.4,46.3,41.4,95,79,54,30.12,30.04,1,0,11,0.02
2014-2-17,68.8,54.9,46.1,53.2,46.0,41.8,94,75,44,30.14,30.05,4,0,15,0.01
2014-2-18,69.8,59.6,49.4,54.7,45.3,39.2,77,60,44,30.13,30.03,4,0,16,0.00
2014-2-19,64.4,56.5,48.9,54.5,48.2,41.5,90,74,53,30.03,29.94,5,0,25,0.00
2014-2-20,58.4,54.7,51.3,55.3,52.0,49.0,93,91,87,29.98,29.87,1,0,7,0.88
2014-2-21,61.9,52.5,47.9,52.0,48.0,43.2,95,85,67,29.94,29.84,2,0,10,0.56
2014-2-22,56.6,50.5,42.8,52.5,46.1,39.0,92,85,74,30.05,29.93,3,0,14,0.35
2014-2-23,59.1,47.7,39.9,48.2,39.9,36.0,90,76,53,30.10,30.02,2,0,12,0.02
2014-2-24,57.4,48.2,42.0,42.5,38.2,35.0,81,69,54,30.14,30.06,3,0,15,0.00
2014-2-25,59.6,48.0,41.1,44.6,39.2,35.6,91,73,48,30.17,30.10,2,0,11,0.00
2014-2-26,58.5,48.1,39.1,47.1,41.8,35.8,94,79,62,30.22,30.16,2,0,17,0.04
2014-2-27,54.7,50.1,46.7,48.3,44.8,41.4,87,82,72,30.21,30.09,1,0,9,0.52
2014-2-28,54.1,46.8,40.7,47.0,42.0,36.9,88,84,75,30.10,29.79,5,1,21,0.33
2014-3-1,48.8,45.8,41.2,43.7,41.5,37.2,86,85,81,29.79,29.46,5,1,29,1.89
2014-3-2,53.5,43.8,36.0,44.5,38.6,32.2,87,82,67,29.55,29.42,5,0,17,0.29
2014-3-3,57.6,48.1,41.4,44.8,40.3,36.0,83,75,58,29.55,29.33,4,1,15,0.01
2014-3-4,55.5,47.9,42.2,47.0,41.7,37.1,84,79,62,29.50,29.29,7,1,30,1.17
2014-3-5,60.0,49.8,42.9,45.3,41.0,37.5,83,72,53,29.80,29.50,4,1,20,0.00
2014-3-6,60.6,52.5,48.4,45.7,40.8,38.6,73,65,54,30.00,29.79,7,3,33,0.00
2014-3-7,59.2,52.9,47.7,47.4,42.5,39.3,80,68,56,30.09,29.99,8,2,33,0.05
2014-3-8,60.3,52.6,46.2,45.4,40.8,38.3,75,64,55,30.24,30.06,7,3,33,0.00
2014-3-9,62.7,54.6,47.2,44.7,40.3,37.2,72,59,49,30.23,30.09,10,4,42,0.00
2014-3-10,56.0,50.5,46.6,44.4,40.4,36.2,77,68,57,30.09,29.96,7,1,27,0.01
2014-3-11,54.0,49.0,41.8,42.0,38.4,35.6,81,67,55,30.24,29.99,5,1,29,0.00
2014-3-12,64.2,52.7,43.1,43.8,37.9,32.8,79,58,38,30.34,30.24,5,0,18,0.00
2014-3-13,69.6,54.9,44.0,46.2,39.6,34.3,73,58,31,30.33,30.25,7,0,27,0.00
2014-3-14,66.7,54.9,45.3,47.9,42.3,38.0,81,64,39,30.27,30.17,2,0,15,0.00
2014-3-15,66.3,54.2,43.7,49.4,44.6,38.6,83,71,45,30.17,29.96,3,0,16,0.00
2014-3-16,67.5,54.0,43.7,52.1,45.7,38.9,84,75,50,30.07,29.91,1,0,9,0.00
2014-3-17,65.3,56.3,48.0,54.7,49.5,42.8,83,78,68,30.20,30.07,2,0,11,0.01
2014-3-18,67.4,58.1,49.4,55.0,50.2,43.5,80,75,63,30.22,30.14,3,0,11,0.00
2014-3-19,67.2,55.4,47.1,54.1,47.7,41.4,82,76,61,30.20,30.11,2,0,14,0.00
2014-3-20,75.4,62.0,54.5,51.9,48.1,45.3,77,62,40,30.23,30.15,5,1,30,0.00
2014-3-21,71.6,57.4,46.8,55.8,47.4,40.6,80,70,44,30.18,30.11,3,0,17,0.00
2014-3-22,68.7,56.8,48.5,53.8,48.2,42.6,80,74,57,30.14,29.97,4,0,16,0.00
2014-3-23,61.2,53.2,47.9,50.8,45.9,41.5,82,76,66,29.97,29.71,7,1,32,1.22
2014-3-24,54.5,45.4,38.2,43.0,38.5,32.3,83,77,64,29.82,29.73,6,1,29,0.23
2014-3-25,55.1,44.6,36.0,44.5,37.5,30.4,80,76,64,29.84,29.71,1,0,9,0.49
2014-3-26,57.6,48.8,38.4,47.5,41.0,32.1,78,75,62,29.78,29.67,4,0,15,0.25
2014-3-27,52.2,49.0,46.9,44.7,41.5,39.4,78,75,74,29.71,29.55,5,1,20,1.12
2014-3-28,63.3,52.5,44.4,50.6,43.0,37.3,76,71,53,30.06,29.67,2,0,15,0.00
2014-3-29,71.2,57.0,46.3,53.3,44.9,39.1,76,65,43,30.13,30.03,4,0,20,0.00
2014-3-30,71.8,58.3,45.9,49.5,43.4,38.8,76,59,34,30.13,30.00,3,1,27,0.00
2014-3-31,70.1,55.3,43.2,52.4,43.9,36.1,76,67,46,30.03,29.94,1,0,10,0.00
2014-4-1,66.6,55.5,45.2,53.8,46.2,37.5,76,71,57,30.04,29.99,4,0,16,0.00
2014-4-2,67.2,57.8,49.6,54.7,48.4,41.3,75,71,62,30.03,29.94,2,0,14,0.00
2014-4-3,73.2,57.9,46.6,53.3,44.8,38.4,76,63,37,29.97,29.72,4,0,13,0.01
2014-4-4,66.8,59.4,53.9,55.4,48.7,43.7,73,68,54,29.72,29.61,7,1,20,0.46
2014-4-5,69.1,58.2,50.2,53.6,46.9,41.5,73,67,50,29.80,29.65,8,1,30,0.00
2014-4-6,73.1,61.4,51.1,52.9,48.1,42.6,76,63,44,29.97,29.79,7,1,25,0.00
2014-4-7,75.5,60.0,49.7,55.6,48.0,41.4,74,65,43,30.10,29.96,5,0,14,0.00
2014-4-8,73.6,59.7,48.0,58.0,49.0,39.4,74,68,54,30.14,30.07,2,0,14,0.00
2014-4-9,67.5,59.5,54.7,56.5,50.0,43.9,74,71,66,30.09,29.95,2,0,18,0.21
2014-4-10,70.3,57.4,47.1,44.1,39.1,32.1,74,52,29,30.09,30.01,4,1,21,0.01
2014-4-11,69.3,57.3,45.5,55.3,47.2,37.2,76,69,55,30.06,30.00,3,0,15,0.00
2014-4-12,67.8,59.0,51.8,55.1,48.8,42.6,73,69,62,30.06,29.97,2,0,14,0.00
2014-4-13,70.1,58.3,49.1,55.3,47.9,41.1,74,69,52,30.01,29.94,3,0,11,0.00
2014-4-14,72.3,57.7,46.5,52.2,45.3,38.7,75,65,38,30.06,29.96,3,0,16,0.00
2014-4-15,65.8,54.1,43.3,56.1,44.9,35.2,75,71,64,29.96,29.77,11,2,43,1.45
2014-4-16,59.1,50.5,42.2,42.2,37.3,33.6,74,61,42,30.00,29.84,7,1,25,0.03
2014-4-17,59.9,48.7,39.9,41.0,36.8,32.5,76,65,42,30.00,29.87,3,0,16,0.00
2014-4-18,61.7,51.4,43.0,47.4,40.6,35.8,76,67,51,29.88,29.74,3,0,14,0.00
2014-4-19,63.0,55.6,51.7,50.7,45.8,42.2,73,70,62,29.78,29.73,6,1,23,0.71
2014-4-20,69.4,60.2,53.3,54.8,47.5,42.8,73,64,39,29.78,29.66,7,1,24,0.01
2014-4-21,77.4,63.2,54.8,60.8,51.1,45.8,73,65,45,29.83,29.61,4,1,18,0.04
2014-4-22,72.7,63.0,52.3,58.2,51.3,41.7,72,66,49,29.92,29.81,8,1,24,0.02
2014-4-23,65.1,59.6,55.5,54.3,49.1,45.3,72,68,64,29.91,29.80,8,1,29,0.77
2014-4-24,73.1,59.6,50.4,58.0,49.0,40.2,73,68,56,29.90,29.85,2,0,11,0.01
2014-4-25,72.6,60.5,52.2,60.0,49.5,41.2,73,67,62,29.89,29.81,4,0,14,0.00
2014-4-26,73.6,60.6,55.4,59.8,48.4,43.0,71,64,60,29.83,29.73,7,0,19,0.15
2014-4-27,63.4,57.3,53.4,53.8,44.4,40.3,71,62,58,29.81,29.67,5,0,25,0.71
2014-4-28,63.3,56.2,50.0,53.7,44.4,37.5,72,65,59,29.77,29.62,4,0,20,0.23
2014-4-29,62.4,55.9,50.0,52.2,44.9,37.5,72,67,60,29.83,29.71,2,0,13,0.62
2014-4-30,66.8,58.1,50.7,56.7,46.8,38.1,71,66,58,29.86,29.82,7,1,17,0.00
2014-5-1,70.2,59.6,50.7,56.5,48.1,37.7,73,66,56,29.85,29.78,3,0,17,0.62
2014-5-2,60.5,57.4,53.9,48.9,45.4,41.5,69,64,60,29.85,29.75,6,0,22,0.63
2014-5-3,60.9,54.2,48.3,51.8,42.5,35.5,72,65,58,29.75,29.59,4,0,14,1.09
2014-5-4,65.7,55.2,46.4,52.7,43.7,34.5,72,65,60,29.86,29.62,3,0,19,0.00
2014-5-5,69.9,59.2,50.9,54.9,46.6,40.7,73,64,47,30.06,29.86,6,1,20,0.00
2014-5-6,73.7,58.6,47.0,59.0,46.3,34.2,72,64,54,30.17,30.05,3,0,11,0.01
2014-5-7,69.4,59.9,51.6,58.3,47.3,37.7,70,63,55,30.17,30.05,2,0,11,0.00
2014-5-8,73.9,62.1,53.9,58.8,48.3,38.6,71,61,51,30.07,30.00,2,0,15,0.00
2014-5-9,77.3,63.6,50.4,58.1,49.0,37.1,71,60,44,30.04,29.98,2,0,10,0.01
2014-5-10,73.3,63.7,54.4,61.4,50.3,39.7,69,62,51,30.04,29.99,2,0,11,0.00
2014-5-11,76.6,65.1,56.5,60.6,50.7,41.4,72,60,50,30.03,29.90,3,0,19,0.00
2014-5-12,73.9,64.5,56.8,61.3,50.8,40.8,71,61,51,29.98,29.91,4,1,20,0.00
2014-5-13,69.9,62.0,54.8,57.7,49.8,39.8,72,64,53,29.98,29.82,2,0,11,0.06
2014-5-14,68.8,59.5,51.3,50.5,44.9,39.3,72,59,45,30.00,29.76,3,0,19,0.00
2014-5-15,73.6,57.6,47.2,47.6,42.9,37.7,73,60,30,29.99,29.91,4,0,20,0.00
2014-5-16,66.9,55.3,48.6,50.1,43.8,37.3,74,66,49,29.96,29.88,1,0,10,0.10
2014-5-17,69.5,56.6,50.4,54.3,42.2,35.3,71,59,53,30.09,29.93,3,0,13,1.86
2014-5-18,74.4,59.5,47.3,57.5,43.8,32.4,70,57,41,30.09,30.01,3,0,11,0.01
2014-5-19,69.7,62.1,54.2,57.9,50.1,41.4,70,65,49,30.02,29.96,2,0,11,0.00
2014-5-20,79.0,65.1,52.6,61.0,49.8,36.8,70,58,48,30.08,30.00,3,0,13,0.00
2014-5-21,83.0,66.7,53.9,63.6,51.0,37.2,70,57,48,30.09,30.02,3,0,11,0.00
2014-5-22,85.8,68.6,55.8,67.1,52.4,38.4,69,57,45,30.05,29.97,2,0,10,0.00
2014-5-23,75.3,66.6,58.3,63.2,53.3,40.2,69,62,50,30.02,29.85,2,0,13,0.00
2014-5-24,81.2,68.6,59.9,65.5,52.8,40.9,70,57,47,30.01,29.94,2,0,14,0.02
2014-5-25,82.7,69.9,59.2,67.6,57.1,42.4,69,64,52,30.00,29.90,3,0,26,0.20
2014-5-26,78.9,69.9,64.3,65.9,57.1,49.7,71,64,45,29.99,29.92,4,0,14,0.00
2014-5-27,74.9,65.0,55.7,61.0,51.8,43.6,72,63,53,30.00,29.94,2,0,18,0.00
2014-5-28,73.4,61.9,51.5,57.5,47.8,36.1,71,60,49,29.99,29.87,3,0,12,0.00
2014-5-29,71.3,62.3,53.1,58.5,49.2,37.2,71,62,49,29.89,29.82,2,0,15,0.00
2014-5-30,75.3,65.0,54.2,61.3,50.8,38.0,70,60,48,29.94,29.86,2,0,14,0.00
2014-5-31,67.5,59.6,55.2,56.8,43.1,38.1,69,54,48,29.96,29.90,3,0,16,1.69
2014-6-1,73.0,61.8,53.4,55.4,47.9,38.7,72,61,45,29.98,29.93,2,0,10,0.00
2014-6-2,76.8,64.3,50.7,57.1,49.2,38.1,73,59,43,29.99,29.88,4,0,20,0.00
2014-6-3,80.4,67.6,56.7,56.9,50.1,45.7,72,55,36,29.92,29.79,5,0,17,0.00
2014-6-4,81.3,66.9,54.8,60.3,52.4,45.4,72,61,37,29.95,29.81,2,0,12,0.00
2014-6-5,80.6,68.5,59.1,62.4,52.6,42.5,70,57,45,30.06,29.94,2,0,12,0.00
2014-6-6,86.0,68.3,52.0,65.2,52.2,36.2,69,57,44,30.08,30.01,1,0,7,0.00
2014-6-7,90.1,73.0,59.0,67.7,56.1,40.0,70,56,38,30.05,29.99,2,0,11,0.00
2014-6-8,92.9,75.6,61.0,64.2,55.4,44.2,69,51,30,30.03,29.98,4,0,17,0.00
2014-6-9,94.6,79.6,66.5,67.0,59.2,50.8,68,51,35,30.03,29.95,5,1,26,0.00
2014-6-10,93.2,74.8,62.5,71.0,57.9,44.6,70,57,39,30.03,29.96,5,0,17,0.36
2014-6-11,91.2,74.6,62.9,74.5,59.4,46.0,69,59,46,30.08,30.00,4,0,12,0.10
2014-6-12,92.9,74.2,63.5,71.6,56.5,42.9,68,55,39,30.08,29.98,2,0,12,0.09
2014-6-13,91.2,73.9,62.1,73.3,56.3,41.8,67,55,41,30.00,29.85,2,0,10,0.00
2014-6-14,85.1,72.7,65.9,71.1,54.6,44.2,67,54,42,29.87,29.73,3,0,16,0.09
2014-6-15,83.6,71.3,64.6,69.6,56.2,45.6,70,59,49,29.83,29.72,5,1,16,0.06
2014-6-16,65.7,65.3,64.6,49.1,48.0,46.1,55,54,51,29.83,29.80,2,0,12,0.00
2014-6-17,78.3,68.8,61.8,65.4,51.8,40.2,66,55,42,29.85,29.81,4,1,18,0.03
2014-6-18,77.1,67.5,61.2,64.8,49.2,39.8,67,52,42,29.94,29.83,3,0,16,1.26
2014-6-19,74.7,64.8,59.9,62.6,45.6,39.1,66,50,42,29.93,29.86,2,0,11,0.13
2014-6-20,80.1,67.7,57.1,65.6,50.8,37.0,69,55,45,29.95,29.90,2,0,10,0.00
2014-6-21,81.1,71.0,63.6,66.6,54.9,42.9,69,57,44,30.04,29.93,3,0,13,0.00
2014-6-22,83.7,71.8,61.7,68.7,53.4,39.7,67,53,40,30.14,30.04,3,0,11,0.00
2014-6-23,85.4,72.1,60.9,70.3,53.6,39.5,68,53,40,30.17,30.07,2,0,12,0.00
2014-6-24,90.7,73.1,59.8,68.1,52.5,39.0,68,50,30,30.08,29.87,4,0,23,0.00
2014-6-25,77.6,68.0,64.0,64.0,50.3,44.4,67,54,42,29.98,29.81,2,0,12,0.09
2014-6-26,84.5,74.1,66.0,69.2,56.1,43.7,68,54,40,29.93,29.81,3,0,16,0.00
2014-6-27,83.9,72.2,62.2,68.2,53.7,39.7,67,53,40,30.06,29.89,1,0,11,0.03
2014-6-28,85.2,74.0,65.2,70.3,55.5,41.6,66,53,39,30.08,30.02,2,0,10,0.00
2014-6-29,88.5,73.5,62.2,69.6,53.1,39.5,67,50,38,30.03,29.82,2,0,12,0.01
2014-6-30,78.3,71.9,62.4,65.2,55.3,44.7,66,57,39,29.98,29.75,4,1,24,0.07
2014-7-1,84.4,70.5,59.4,69.2,52.8,37.9,67,54,41,30.05,29.98,2,0,15,0.01
2014-7-2,85.5,71.6,60.2,67.2,51.9,38.6,67,50,34,30.15,30.03,2,0,11,0.01
2014-7-3,91.5,73.8,58.3,70.3,55.4,37.0,66,53,40,30.20,30.13,1,0,14,0.00
2014-7-4,93.0,79.3,68.7,71.2,63.2,52.8,68,59,37,30.14,29.96,2,0,18,0.00
2014-7-5,84.6,73.5,63.0,71.0,57.1,41.8,65,57,41,29.97,29.88,4,0,18,0.00
2014-7-6,88.0,74.9,63.9,72.9,56.3,40.3,65,53,37,29.97,29.93,2,0,10,0.00
2014-7-7,89.4,75.5,63.2,72.8,56.7,39.5,65,52,37,30.03,29.92,1,0,11,0.00
2014-7-8,83.2,74.2,67.7,69.3,58.1,45.3,67,58,41,29.93,29.84,5,1,28,0.00
2014-7-9,80.1,70.4,61.8,65.0,56.3,41.2,69,61,44,29.89,29.81,6,1,20,0.00
2014-7-10,73.2,67.2,59.0,60.7,53.4,41.9,67,61,50,29.81,29.70,6,1,27,0.10
2014-7-11,80.7,66.5,54.8,62.7,49.5,34.4,67,55,42,29.84,29.73,2,0,16,0.01
2014-7-12,81.8,71.2,61.7,66.3,54.6,40.0,67,56,40,29.94,29.84,4,0,17,0.02
2014-7-13,77.5,69.3,62.8,63.0,51.6,39.7,67,54,40,29.96,29.88,3,0,17,0.89
2014-7-14,76.7,67.3,61.1,63.6,47.4,38.4,65,49,39,29.96,29.88,5,0,17,1.24
2014-7-15,84.1,70.0,59.1,68.3,51.1,36.6,66,52,38,29.99,29.91,1,0,11,0.01
2014-7-16,88.3,73.9,61.7,70.5,55.7,38.5,67,53,42,30.00,29.93,2,0,12,0.00
2014-7-17,89.8,76.1,63.7,71.8,60.1,43.1,67,58,42,30.00,29.95,1,0,9,0.00
2014-7-18,91.7,77.1,65.6,72.0,60.5,44.8,67,57,47,30.00,29.93,2,0,10,0.00
2014-7-19,92.7,76.6,63.2,71.8,58.3,42.6,67,54,43,30.00,29.95,1,0,9,0.00
2014-7-20,93.0,77.1,64.6,73.6,58.6,42.6,67,53,40,30.01,29.92,1,0,8,0.00
2014-7-21,81.6,72.1,64.8,67.8,56.8,47.3,67,59,47,30.00,29.81,2,0,15,0.12
2014-7-22,78.7,68.1,62.7,65.5,46.2,39.2,64,46,39,29.83,29.70,2,0,11,1.11
2014-7-23,83.4,71.8,60.7,68.1,53.1,37.5,66,52,40,29.85,29.75,2,0,12,0.01
2014-7-24,81.1,70.9,62.9,67.3,49.3,39.3,63,47,37,29.91,29.82,1,0,9,0.92
2014-7-25,85.0,74.6,65.3,70.5,54.0,40.1,64,49,36,29.93,29.88,1,0,9,0.01
2014-7-26,80.1,72.6,65.7,66.5,52.6,40.6,66,50,38,29.93,29.77,2,0,18,0.03
2014-7-27,84.3,73.8,65.4,70.3,57.2,44.6,66,56,44,29.87,29.76,2,0,17,0.00
2014-7-28,84.1,73.5,64.7,69.7,53.4,39.8,63,50,36,29.91,29.86,2,0,13,0.00
2014-7-29,86.3,75.5,67.0,70.6,55.1,41.2,64,50,36,29.89,29.70,1,0,11,0.00
2014-7-30,77.0,71.1,64.6,63.0,53.5,42.3,65,54,38,29.78,29.64,3,0,23,0.12
2014-7-31,83.2,71.1,61.6,67.5,51.3,37.7,64,50,37,29.83,29.75,1,0,11,0.01
2014-8-1,88.1,74.7,63.9,72.8,53.9,38.4,64,49,35,29.83,29.77,1,0,10,0.01
2014-8-2,86.1,76.1,69.7,71.6,54.3,42.3,64,48,35,29.93,29.82,1,0,14,0.00
2014-8-3,90.0,75.8,66.9,71.6,53.6,40.6,64,47,35,29.96,29.86,1,0,9,0.02
2014-8-4,93.4,77.8,67.1,74.1,56.9,40.3,66,49,37,29.92,29.88,1,0,13,0.00
2014-8-5,88.8,75.4,64.3,72.2,54.7,39.2,63,49,34,29.91,29.81,2,0,14,0.00
2014-8-6,88.4,74.5,65.7,71.3,52.5,40.1,64,47,37,29.84,29.79,2,0,12,0.04
2014-8-7,90.3,75.8,64.9,68.0,58.1,45.2,65,55,40,29.91,29.81,1,0,8,0.00
2014-8-8,91.0,75.8,64.9,71.5,55.1,39.3,64,49,37,29.97,29.90,1,0,11,0.00
2014-8-9,90.4,76.2,66.1,73.1,54.4,39.7,64,48,34,30.01,29.95,1,0,12,0.02
2014-8-10,91.5,69.1,62.1,72.4,45.8,37.2,61,43,37,30.02,29.98,1,0,8,0.00
2014-8-11,96.8,75.8,60.8,71.6,53.6,37.5,64,47,32,29.98,29.91,1,0,11,0.00
2014-8-12,93.4,76.3,62.4,72.3,54.1,37.8,63,46,35,29.93,29.88,1,0,11,0.00
2014-8-13,93.0,76.7,64.1,75.2,53.4,38.2,62,45,35,29.90,29.80,2,0,13,0.00
2014-8-14,83.9,74.6,67.1,67.0,52.5,40.9,65,47,33,29.92,29.80,3,0,15,0.00
2014-8-15,82.8,70.5,60.3,65.1,51.0,35.3,65,51,36,29.97,29.92,4,0,22,0.00
2014-8-16,82.4,70.9,61.2,65.5,51.5,36.8,65,51,37,29.97,29.91,3,0,17,0.00
2014-8-17,88.7,71.6,60.6,64.6,51.7,36.3,66,50,39,29.98,29.94,1,0,10,0.00
2014-8-18,87.3,70.6,58.4,66.2,49.2,35.3,64,47,36,29.99,29.95,1,0,12,0.00
2014-8-19,88.3,71.4,59.5,65.3,48.4,34.7,63,44,32,29.97,29.89,1,0,9,0.00
2014-8-20,88.7,74.5,61.3,72.3,55.7,40.0,63,53,35,29.97,29.91,1,0,20,0.00
2014-8-21,88.1,77.1,69.5,72.0,52.8,40.6,59,44,33,29.97,29.91,2,0,17,0.00
2014-8-22,89.4,76.8,67.7,71.5,53.0,41.4,63,45,32,29.99,29.92,2,0,12,0.00
2014-8-23,88.7,73.5,63.6,71.6,50.5,36.8,62,45,33,29.98,29.89,3,0,15,0.03
2014-8-24,84.9,76.1,68.8,68.3,53.3,40.8,65,46,34,29.97,29.91,3,0,18,0.00
2014-8-25,87.9,72.1,61.4,67.1,51.2,36.2,65,48,38,30.01,29.95,1,0,16,0.00
2014-8-26,86.4,72.5,63.2,66.5,50.8,36.7,63,47,33,30.02,29.94,1,0,14,0.00
2014-8-27,89.1,73.5,62.1,70.1,50.9,35.5,61,46,33,29.96,29.87,1,0,16,0.03
2014-8-28,93.1,77.2,66.0,71.6,52.8,38.2,61,43,33,29.92,29.87,1,0,11,0.00
2014-8-29,91.9,78.8,70.5,70.4,62.2,51.9,63,57,45,29.96,29.92,2,0,19,0.00
2014-8-30,90.9,76.7,67.6,72.5,56.5,40.5,63,50,35,29.98,29.92,1,0,12,0.00
2014-8-31,89.8,74.8,64.6,70.2,51.0,37.0,62,44,33,29.95,29.82,1,0,13,0.00
2014-9-1,78.5,69.5,59.7,62.1,46.4,37.2,62,44,34,29.82,29.46,3,0,23,1.15
2014-9-2,80.6,67.7,58.5,65.3,47.8,33.5,63,50,35,29.74,29.55,3,0,22,0.41
2014-9-3,80.0,68.4,61.9,64.3,49.3,36.7,64,51,36,29.81,29.71,1,0,10,0.69
2014-9-4,84.3,71.7,62.2,67.1,50.7,36.1,64,48,35,29.88,29.80,1,0,11,0.01
2014-9-5,81.6,71.4,67.0,66.8,48.1,38.4,61,44,35,29.87,29.79,1,0,10,1.00
2014-9-6,80.8,69.1,64.2,65.6,43.7,36.7,60,40,34,29.85,29.76,1,0,10,0.85
2014-9-7,82.2,70.2,61.2,66.4,47.4,34.7,61,45,34,29.95,29.84,0,0,10,0.01
2014-9-8,83.0,70.5,63.5,66.7,45.5,36.0,59,41,32,30.04,29.94,2,0,18,0.69
2014-9-9,83.1,71.6,63.0,66.8,46.5,35.6,59,41,32,30.03,29.94,1,0,8,0.00
2014-9-10,80.8,72.3,66.8,64.5,47.0,38.3,58,41,33,29.98,29.84,2,0,11,0.00
2014-9-11,75.3,68.9,61.8,57.3,42.1,35.2,55,38,34,29.89,29.77,4,0,16,2.34
2014-9-12,79.8,71.5,64.7,64.7,47.4,37.1,61,43,34,29.88,29.79,6,0,26,0.06
2014-9-13,79.7,70.7,61.0,65.1,48.8,36.8,64,47,34,29.96,29.86,4,0,12,0.00
2014-9-14,82.2,69.2,61.7,63.7,48.8,37.7,65,49,40,29.97,29.91,1,0,11,0.00
2014-9-15,81.1,67.4,57.7,65.0,45.9,32.9,62,47,34,30.00,29.93,2,0,11,0.01
2014-9-16,84.2,68.9,59.8,68.2,46.5,33.8,63,45,36,29.97,29.88,1,0,9,0.07
2014-9-17,81.8,70.1,62.5,65.3,53.0,38.1,64,55,38,29.97,29.90,1,0,12,0.00
2014-9-18,84.3,72.1,64.9,66.8,53.4,40.7,64,52,38,30.03,29.94,1,0,12,0.00
2014-9-19,87.2,75.2,68.1,71.1,55.5,40.5,63,51,35,30.09,30.00,1,0,10,0.00
2014-9-20,88.5,76.6,68.2,72.3,53.1,39.4,62,45,33,30.09,29.97,1,0,8,0.00
2014-9-21,83.0,76.3,71.4,64.6,48.2,40.8,54,38,31,30.03,29.94,1,0,20,0.00
2014-9-22,82.7,75.1,71.1,67.4,51.0,41.8,60,44,32,29.95,29.78,4,0,25,0.00
2014-9-23,76.5,69.1,61.4,55.9,48.7,39.5,63,49,36,29.99,29.77,5,1,32,0.00
2014-9-24,71.1,63.2,57.3,56.0,45.6,33.5,66,53,36,30.04,29.96,2,0,23,0.45
2014-9-25,77.5,66.1,62.2,61.4,38.8,34.9,58,37,33,30.01,29.93,1,0,7,0.32
2014-9-26,76.5,66.4,60.4,58.3,47.4,34.5,64,51,36,30.14,29.98,3,0,21,0.01
2014-9-27,78.1,64.2,53.3,57.8,49.3,35.7,68,59,46,30.27,30.13,2,0,20,0.00
2014-9-28,77.8,65.4,54.7,60.0,47.6,30.4,67,53,37,30.31,30.24,2,0,36,0.00
2014-9-29,80.6,66.5,58.1,59.7,49.9,33.2,66,56,39,30.36,30.29,1,0,19,0.00
2014-9-30,80.2,65.3,56.4,62.8,44.5,31.8,65,47,37,30.31,30.25,2,0,13,0.00
2014-10-1,79.6,65.1,55.2,63.9,43.0,30.0,59,45,33,30.27,30.16,1,0,8,0.00
2014-10-2,71.1,65.0,58.6,54.5,41.6,32.4,58,43,34,30.17,30.08,3,0,17,0.05
2014-10-3,77.9,69.0,64.9,62.3,55.0,48.1,66,61,54,30.10,30.01,6,1,32,0.00
2014-10-4,76.1,67.6,62.4,61.7,54.5,47.9,66,63,59,30.03,29.91,3,0,26,0.00
2014-10-5,78.2,68.2,62.6,62.9,54.6,47.5,65,62,55,29.93,29.86,3,0,25,0.00
2014-10-6,79.5,68.9,61.3,61.7,52.8,35.5,65,57,38,29.99,29.87,3,0,22,0.00
2014-10-7,79.3,66.0,57.2,62.5,43.6,31.3,63,45,34,30.11,29.98,2,0,8,0.00
2014-10-8,80.2,66.6,57.2,64.5,44.6,31.1,62,46,34,30.14,30.06,1,0,8,0.00
2014-10-9,82.4,66.9,57.1,64.5,43.8,31.1,62,44,33,30.11,30.04,1,0,9,0.01
2014-10-10,83.2,66.5,56.0,64.1,43.8,30.7,63,44,34,30.09,30.03,1,0,7,0.00
2014-10-11,83.7,65.0,54.7,65.7,42.7,30.9,64,45,34,30.06,30.00,2,0,9,0.00
2014-10-12,80.6,68.3,59.7,64.9,44.5,33.4,59,43,32,30.04,29.98,2,0,14,0.01
2014-10-13,81.9,68.7,60.7,66.2,45.4,33.6,63,44,32,30.03,29.93,1,0,14,0.00
2014-10-14,84.6,71.1,61.8,68.1,53.3,34.7,66,54,36,29.98,29.81,2,0,10,0.00
2014-10-15,82.6,73.0,65.4,66.8,56.9,40.4,66,58,35,29.92,29.78,3,0,12,0.00
2014-10-16,75.9,71.2,66.9,61.4,47.8,38.7,62,44,34,30.08,29.92,3,0,15,0.27
2014-10-17,77.7,70.6,64.9,63.2,46.4,37.9,62,43,35,30.14,30.05,3,0,15,0.06
2014-10-18,81.5,68.9,61.5,66.1,45.0,34.3,60,43,32,30.22,30.12,1,0,7,0.01
2014-10-19,83.3,70.3,61.8,65.9,50.1,34.0,64,49,35,30.23,30.18,2,0,14,0.00
2014-10-20,79.7,67.8,58.7,64.1,43.3,32.5,59,42,32,30.22,30.07,2,0,10,0.00
2014-10-21,73.6,69.3,64.1,58.9,45.9,36.5,60,44,34,30.06,29.82,3,0,17,0.00
2014-10-22,74.7,63.2,48.2,61.3,44.8,37.2,69,52,37,29.82,29.52,4,1,26,0.13
2014-10-23,65.0,52.9,42.5,44.3,38.8,29.8,70,60,36,29.78,29.62,2,0,20,0.00
2014-10-24,59.1,52.3,44.6,47.7,41.1,33.6,69,66,53,29.92,29.72,2,0,21,0.00
2014-10-25,66.8,57.0,50.6,50.8,43.2,34.8,68,60,51,30.07,29.92,3,0,17,0.00
2014-10-26,68.8,57.4,49.2,51.5,45.1,37.9,69,64,51,30.16,30.07,4,0,25,0.00
2014-10-27,67.6,58.8,54.5,50.3,45.9,44.1,68,63,49,30.17,30.11,4,1,30,0.00
2014-10-28,65.7,58.0,53.7,50.5,46.6,43.8,69,66,55,30.13,30.04,3,1,26,0.00
2014-10-29,69.1,57.0,47.6,53.1,42.8,28.9,68,59,45,30.10,30.01,2,0,14,0.00
2014-10-30,69.8,57.4,47.3,51.7,42.4,27.6,67,58,43,30.16,30.09,3,0,17,0.00
2014-10-31,67.8,56.9,45.1,48.0,42.0,27.2,69,58,46,30.19,30.13,4,0,24,0.00
2014-11-1,69.4,56.6,44.5,49.4,43.0,29.0,68,61,44,30.21,30.15,2,0,17,0.00
2014-11-2,69.2,55.9,47.0,52.7,41.2,27.6,68,58,42,30.21,30.13,2,0,16,0.00
2014-11-3,68.5,55.6,47.6,54.5,35.1,25.1,61,47,35,30.18,30.09,3,0,15,0.00
2014-11-4,67.4,58.7,49.7,54.2,38.8,26.3,63,48,36,30.09,29.86,3,0,13,0.41
2014-11-5,70.3,65.8,57.7,56.8,50.2,34.8,63,57,42,29.86,29.74,6,1,27,0.00
2014-11-6,75.8,70.5,63.9,60.8,54.4,41.5,63,57,44,29.81,29.72,20,2,33,0.01
2014-11-7,70.0,64.2,58.7,56.8,48.8,37.9,64,58,40,29.76,29.63,10,1,26,0.01
2014-11-8,69.1,62.3,58.1,56.0,49.6,36.3,66,63,44,29.88,29.73,8,1,26,0.00
2014-11-9,68.7,60.1,53.5,54.9,39.1,29.6,62,46,36,30.02,29.86,1,0,10,0.00
2014-11-10,71.8,61.6,55.0,57.6,39.5,29.8,62,45,35,30.08,30.02,2,0,11,0.01
2014-11-11,68.7,60.9,55.8,55.6,41.4,32.3,63,49,36,30.02,29.77,1,0,10,0.12
2014-11-12,63.4,59.5,56.7,39.9,34.4,31.4,49,39,36,29.77,29.63,2,0,11,1.29
2014-11-13,63.6,56.7,51.6,49.5,34.4,28.0,61,43,36,29.89,29.67,2,0,8,0.46
2014-11-14,69.2,57.1,50.5,56.0,37.7,27.0,64,49,38,29.95,29.88,1,0,11,0.01
2014-11-15,64.1,57.9,51.4,49.3,35.2,27.2,59,43,35,29.95,29.80,5,0,21,0.28
2014-11-16,67.0,58.7,52.6,53.5,37.4,28.3,63,46,35,29.88,29.78,2,0,20,1.59
2014-11-17,64.1,57.7,50.2,50.3,36.8,26.8,62,46,36,29.91,29.73,10,1,32,0.09
2014-11-18,63.7,56.3,49.3,50.6,35.8,26.6,64,47,36,29.94,29.73,4,0,27,0.35
2014-11-19,64.4,54.9,49.0,51.5,33.5,26.4,63,45,36,30.16,29.92,2,0,11,0.18
2014-11-20,63.0,53.9,48.8,49.4,40.6,29.2,69,61,42,30.24,30.15,1,0,11,0.00
2014-11-21,63.6,51.1,44.1,49.9,37.8,23.6,70,61,43,30.22,30.15,3,0,14,0.00
2014-11-22,62.9,52.2,44.4,49.7,39.1,26.1,68,61,46,30.26,30.19,3,0,14,0.00
2014-11-23,65.0,53.6,47.6,51.4,38.4,26.4,66,57,40,30.31,30.23,2,0,8,0.00
2014-11-24,65.8,55.0,48.2,52.4,38.4,26.7,65,54,42,30.27,30.16,2,0,11,0.00
2014-11-25,61.3,50.6,47.7,48.6,28.4,25.1,63,42,39,30.18,30.13,2,0,9,0.02
2014-11-26,62.0,56.3,51.5,44.7,32.3,27.3,53,40,36,30.09,29.95,1,0,6,0.06
2014-11-27,62.3,54.5,51.5,34.3,29.4,27.3,40,38,35,29.98,29.94,2,0,7,0.00
2014-11-28,64.8,58.5,53.0,52.8,43.2,29.3,66,57,38,29.93,29.83,5,1,18,0.00
2014-11-29,67.2,61.4,56.7,52.1,45.1,33.1,65,55,39,29.93,29.87,1,0,12,0.03
2014-11-30,68.3,63.7,59.1,55.3,50.7,45.7,67,63,50,29.90,29.73,4,0,19,0.00
2014-12-1,68.1,62.6,57.1,55.5,44.5,34.3,67,52,38,29.80,29.60,8,2,32,1.11
2014-12-2,56.8,55.0,54.0,36.8,30.4,28.9,47,39,38,29.68,29.58,3,0,13,3.22
2014-12-3,62.0,57.2,52.1,41.3,32.6,28.5,49,39,37,29.84,29.66,1,0,12,0.42
2014-12-4,59.5,-26.2,-90.0,32.6,12.8,27.9,40,17,36,30.06,29.84,3,0,17,1.09
2014-12-5,60.4,-28.0,-90.0,49.4,17.3,7.4,72,25,53,30.15,30.02,1,0,8,0.20
2014-12-6,59.3,46.4,-90.0,49.3,33.5,28.4,70,51,47,30.02,29.94,1,0,15,0.07
2014-12-7,56.2,51.7,45.6,45.1,37.0,28.0,67,57,44,30.01,29.93,3,0,10,0.00
2014-12-8,57.2,50.1,43.7,45.9,38.9,28.3,69,65,52,29.93,29.83,4,0,16,0.00
2014-12-9,55.4,49.8,45.0,41.3,38.0,35.4,70,64,54,29.91,29.75,8,2,28,0.00
2014-12-10,54.0,48.9,40.9,41.8,38.1,31.4,71,66,59,30.08,29.91,6,1,27,0.00
2014-12-11,53.0,45.8,39.4,42.3,35.4,26.3,70,67,55,30.07,29.97,9,1,22,0.00
2014-12-12,55.1,44.8,38.9,41.9,32.4,24.1,69,62,46,30.22,30.05,13,2,28,0.00
2014-12-13,59.1,48.0,39.3,47.3,32.2,23.1,65,54,44,30.27,30.21,5,0,16,0.02
2014-12-14,60.1,50.7,44.9,47.9,35.0,27.0,68,55,47,30.25,30.18,8,0,15,0.00
2014-12-15,57.0,51.4,46.8,46.3,40.7,31.0,70,67,53,30.19,30.07,8,2,24,0.00
2014-12-16,53.8,51.1,48.0,41.0,34.3,30.1,68,53,46,30.06,29.74,14,3,34,2.73
2014-12-17,58.3,50.6,44.5,48.2,33.4,25.5,70,52,45,29.93,29.80,3,0,18,0.18
2014-12-18,59.1,51.5,43.8,48.1,36.6,25.0,69,57,43,30.19,29.92,9,2,26,0.00
2014-12-19,57.6,48.9,43.2,46.7,34.7,24.4,68,58,45,30.25,30.19,7,1,19,0.00
2014-12-20,59.1,51.3,45.1,43.9,29.5,23.9,57,43,37,30.24,30.16,2,0,10,0.03
2014-12-21,59.5,52.0,43.0,46.0,33.9,23.4,65,51,37,30.46,30.15,11,3,35,0.01
2014-12-22,55.9,46.7,40.4,40.4,31.2,20.2,64,55,43,30.48,30.41,10,2,32,0.00
2014-12-23,56.4,46.9,40.2,42.5,27.2,20.0,60,46,38,30.46,30.37,3,0,13,0.01
2014-12-24,54.3,50.9,46.9,41.8,33.9,26.1,63,52,40,30.40,30.29,6,0,17,0.00
2014-12-25,52.7,48.7,45.1,39.0,33.2,28.6,64,55,47,30.29,30.09,9,1,18,0.00
2014-12-26,54.4,47.5,43.5,41.7,31.1,25.2,65,53,44,30.09,29.99,13,2,40,0.00
2014-12-27,50.9,44.8,35.6,37.5,29.8,24.0,67,56,44,30.10,29.53,15,3,44,0.18
2014-12-28,52.9,46.2,39.6,38.5,28.3,22.3,65,50,41,29.61,29.39,18,1,51,0.38
2014-12-29,42.2,39.9,37.6,31.6,26.3,22.0,66,58,49,30.10,29.62,5,0,26,0.00
2014-12-30,38.5,33.6,27.5,24.2,20.3,15.3,69,58,47,30.16,30.07,0,0,0,0.00
2014-12-31,38.7,31.9,25.5,27.0,20.9,13.8,69,64,57,30.12,29.98,7,0,29,0.13
2015-1-1,46.8,41.0,37.8,29.6,26.4,22.0,66,56,41,30.36,30.06,14,2,45,0.01
2015-1-2,53.4,39.6,29.6,40.3,26.0,16.4,68,58,46,30.43,30.34,0,0,0,0.00